Powrót do katalogu

AIST 1

AktywnyNaukaPO
NORAD 39492·PAYLOAD·🇷🇺 Russia

Wystrzelony Dec 28, 2013 z Plesetsk Cosmodrome

Loading…

Następne Przeloty (najbliższe 24 godziny)

TLE

ŚwieżeSource: Space-Track

Epoka: Sep 14, 2026, 13:50 UTC

1 39492U 13078C   26257.57708289  .00001300  00000-0  11255-3 0  9995
2 39492  82.4189 184.2695 0016477 343.8342  16.2352 14.96273909688616

Śledź AIST 1 w czasie rzeczywistym z AllMySat

Download on the App Store